Find Starlink 3866

NORAD ID: 52500 Int'l Des: 2022-049 Owner: SPXS Country: US Constellation: starlink operational
LEOCIRCULAR

当前视图

正在加载3D地球...

关于 Starlink 3866

正在加载描述...

即将过境

Passes for default location (London). Set your location on the main map for personalized predictions.

高度历史

Loading altitude history...

两行轨道根数

1 52500U 22049BB 26149.60117381 .00003030 00000-0 20839-3 0 9999
2 52500 53.1992 35.8859 0001275 78.7295 281.3840 15.08843000224748
Epoch: May 29, 2026 • Age: 13 hours

当前状态

高度 541.9 km
速度 7.59 km/s
星下点 -7.41°S, 93.73°E
发射日期 May 6, 2022
运行时间 4 years
类型 internet

技术详情

分类 Payload
质量 297.00 kg
干质量 220.00 kg
总质量 297.00 kg
长度 0.20 m
直径 2.80 m
跨度 9.00 m
形状 Box + pan
制造商 SPXS
平台类型 Starlink
阶段状态 In Orbit
所有者/国家 SPXS/US

Most Searched